This demonstration page uses our WeatherBlox Daily Observations layout. Learn more.

38.89511, -77.03637

Hourly Observations for April 23, 2015

Temp ( °F °C ) Dew Point ( °F °C ) Humidity (%) Winds ( mph kmh ) Pressure ( in mb ) Visibility ( mi km ) Precip ( " mm )
12:52 am 00:52 Mostly Cloudy 52 11.1 32 0 47 47 NNW 12 19 29.82 1010 10 16.0934 0 0
1:52 am 01:52 Mostly Clear 50 10 26 -3.3 39 39 NW 17 28 29.81 1010 10 16.0934 0 0
2:52 am 02:52 Clear 49 9.4 24 -4.4 38 38 WNW 13 20 29.83 1010 10 16.0934 0 0
3:52 am 03:52 Clear 48 8.9 23 -5 37 37 W 9 15 29.85 1011 10 16.0934 0 0
4:52 am 04:52 Clear 47 8.3 22 -5.6 37 37 WNW 8 13 29.86 1011 10 16.0934 0 0
5:52 am 05:52 Mostly Cloudy 46 7.8 24 -4.4 42 42 WSW 5 7 29.86 1011 10 16.0934 0 0
6:52 am 06:52 Mostly Cloudy 45 7.2 26 -3.3 48 48 SW 7 11 29.87 1012 10 16.0934 0 0
7:52 am 07:52 Mostly Cloudy 49 9.4 25 -3.9 39 39 SW 8 13 29.88 1012 10 16.0934 0 0
8:52 am 08:52 Partly Cloudy 52 11.1 24 -4.4 34 34 W 10 17 29.89 1012 10 16.0934 0 0
9:52 am 09:52 Mostly Cloudy 52 11.1 23 -5 32 32 NW 15 24 29.88 1012 10 16.0934 0 0
10:52 am 10:52 Mostly Cloudy 55 12.8 25 -3.9 31 31 W 17 28 29.88 1012 10 16.0934 0 0
11:52 am 11:52 Mostly Cloudy 57 13.9 27 -2.8 32 32 NNW 17 28 29.86 1011 10 16.0934 0 0
12:52 pm 12:52 Mostly Cloudy 56 13.3 24 -4.4 29 29 WNW 17 28 29.85 1011 10 16.0934 0 0
1:52 pm 13:52 Mostly Cloudy 57 13.9 25 -3.9 29 29 WNW 16 26 29.84 1011 10 16.0934 0 0
2:52 pm 14:52 Mostly Cloudy 58 14.4 25 -3.9 28 28 W 12 19 29.83 1010 10 16.0934 0 0
3:52 pm 15:52 Cloudy 58 14.4 26 -3.3 29 29 WNW 10 17 29.82 1010 10 16.0934 0 0
4:52 pm 16:52 Cloudy 59 15 27 -2.8 29 29 NW 18 30 29.83 1010 10 16.0934 0 0
5:52 pm 17:52 Mostly Cloudy 58 14.4 25 -3.9 28 28 W 12 19 29.84 1011 10 16.0934 0 0
6:52 pm 18:52 Mostly Cloudy 57 13.9 27 -2.8 32 32 NW 10 17 29.85 1011 10 16.0934 0 0
7:52 pm 19:52 Mostly Cloudy 55 12.8 26 -3.3 33 33 NNW 15 24 29.86 1011 10 16.0934 0 0
8:52 pm 20:52 Mostly Cloudy 53 11.7 28 -2.2 38 38 N 13 20 29.9 1013 10 16.0934 0 0
9:52 pm 21:52 Mostly Cloudy 51 10.6 29 -1.7 43 43 NNW 13 20 29.93 1013 10 16.0934 0 0
10:52 pm 22:52 Mostly Cloudy 50 10 29 -1.7 44 44 N 16 26 29.94 1014 10 16.0934 0 0
11:52 pm 23:52 Mostly Cloudy 48 8.9 28 -2.2 46 46 NNW 9 15 29.95 1014 10 16.0934 0 0

Powered by AerisWeather